Laurinburg-Maxton, NC

10:56 AM EDT on June 25, 2017 (GMT -0400)
Laurinburg-Maxton

Weather History for KMEB - March, 2014

Change the Weather History Date:

Tuesday, March 18, 2014

  Actual Average (KHFF) Record (KHFF)
Temperature  
Mean Temperature 36 °F -  
Max Temperature 41 °F 62 °F 83 °F (2011)
Min Temperature 32 °F 41 °F 31 °F (2014)
Degree Days  
Heating Degree Days 28    
Moisture  
Dew Point 34 °F    
Average Humidity 95    
Maximum Humidity 100    
Minimum Humidity 82    
Precipitation  
Precipitation 0.17 in - - ()
Sea Level Pressure  
Sea Level Pressure 30.01 in    
Wind  
Wind Speed 12 mph (NNE)    
Max Wind Speed 16 mph    
Max Gust Speed 25 mph    
Visibility 7 miles    
Events Rain , Snow    
Averages and records for this station are not official NWS values.
T = Trace of Precipitation, MM = Missing Value Source: NWS Daily Summary

Daily Weather History Graph

Daily Weather History Graph

Search for Another Location

Airport or City:

Trip Planner

Search our weather history database for the weather conditions in past years. The results will help you decide how hot, cold, wet, or windy it might be!

Date:

Astronomy

Mar. 18, 2014 Rise Set
Actual Time 7:23 AM EDT 7:27 PM EDT
Civil Twilight 6:58 AM EDT 7:52 PM EDT
Nautical Twilight 6:29 AM EDT 8:22 PM EDT
Astronomical Twilight 5:59 AM EDT 8:51 PM EDT
Moon 9:36 PM EDT (3/18) 8:17 AM EDT (3/18)
Length of Visible Light 12h 53m
Length of Day
12h 03m
Waning Gibbous, 96% of the Moon is Illuminated
Mar 18
Waning Gibbous
Mar 23
Last Quarter
Mar 30
New
Apr 7
First Quarter
Apr 15
Full

Hourly Weather History & Observations

Time (EDT) Temp. Windchill Dew Point Humidity Pressure Visibility Wind Dir Wind Speed Gust Speed Precip Events Conditions
12:04 AM 33.1 °F 23.4 °F 32.0 °F 96% 29.96 in 2.5 mi NE 13.8 mph - 0.01 in Rain Light Rain
12:12 AM 33.1 °F 24.9 °F 32.0 °F 96% 29.97 in 3.0 mi NNE 10.4 mph - 0.02 in   Overcast
12:23 AM 33.1 °F 25.5 °F 32.0 °F 96% 29.96 in 3.0 mi NNE 9.2 mph - 0.03 in Rain Light Rain
12:52 AM 32.0 °F 23.6 °F 32.0 °F 100% 29.97 in 4.0 mi NNE 10.4 mph - 0.04 in   Overcast
1:03 AM 32.0 °F 23.6 °F 32.0 °F 100% 29.97 in 2.0 mi NNE 10.4 mph - 0.01 in   Overcast
1:15 AM 32.0 °F 24.2 °F 32.0 °F 100% 29.96 in 4.0 mi NNE 9.2 mph - 0.01 in   Overcast
1:33 AM 33.1 °F 25.5 °F 32.0 °F 96% 29.96 in 2.5 mi NE 9.2 mph - 0.04 in   Overcast
1:52 AM 32.0 °F 22.5 °F 32.0 °F 100% 29.95 in 1.8 mi NNE 12.7 mph - 0.10 in Snow Light Snow
2:04 AM 32.0 °F 22.5 °F 32.0 °F 100% 29.96 in 3.0 mi NE 12.7 mph - 0.02 in   Overcast
2:13 AM 33.1 °F 24.9 °F 32.0 °F 96% 29.95 in 4.0 mi NE 10.4 mph - 0.02 in   Overcast
2:20 AM 33.1 °F 25.5 °F 32.0 °F 96% 29.95 in 5.0 mi NE 9.2 mph - 0.03 in   Overcast
2:52 AM 33.1 °F 23.4 °F 32.0 °F 96% 29.94 in 10.0 mi NNE 13.8 mph - 0.03 in   Overcast
3:00 AM 33.1 °F 23.0 °F 32.0 °F 96% 29.93 in 10.0 mi NNE 15.0 mph - N/A   Overcast
3:34 AM 33.1 °F 23.0 °F 32.0 °F 96% 29.90 in 10.0 mi NE 15.0 mph - N/A   Overcast
3:44 AM 33.1 °F 23.4 °F 32.0 °F 96% 29.91 in 10.0 mi NNE 13.8 mph - N/A   Overcast
3:52 AM 33.1 °F 24.4 °F 32.0 °F 96% 29.92 in 10.0 mi NNE 11.5 mph - N/A   Overcast
4:52 AM 33.1 °F 24.9 °F 32.0 °F 96% 29.95 in 10.0 mi NNE 10.4 mph - N/A   Overcast
5:52 AM 33.1 °F 23.0 °F 32.0 °F 96% 29.96 in 4.0 mi NNE 15.0 mph 21.9 mph N/A   Overcast
6:52 AM 32.0 °F 21.6 °F 30.9 °F 96% 29.92 in 6.0 mi NNE 15.0 mph 25.3 mph N/A   Overcast
7:52 AM 32.0 °F 21.6 °F 32.0 °F 100% 29.92 in 4.0 mi NNE 15.0 mph 21.9 mph N/A   Overcast
8:52 AM 33.1 °F 23.4 °F 32.0 °F 96% 29.96 in 4.0 mi NE 13.8 mph - N/A   Overcast
9:03 AM 33.1 °F 25.5 °F 33.1 °F 100% 29.97 in 1.8 mi NNE 9.2 mph - N/A   Overcast
9:41 AM 34.0 °F 24.2 °F 33.1 °F 96% 29.98 in 3.0 mi NNE 15.0 mph - N/A   Overcast
9:52 AM 34.0 °F 23.8 °F 33.1 °F 96% 29.98 in 4.0 mi NNE 16.1 mph - N/A   Overcast
10:52 AM 36.0 °F 27.5 °F 34.0 °F 93% 30.01 in 3.0 mi NNE 12.7 mph - N/A   Overcast
11:52 AM 37.0 °F 28.9 °F 36.0 °F 96% 30.05 in 10.0 mi North 12.7 mph - N/A   Overcast
12:11 PM 37.9 °F 30.9 °F 36.0 °F 93% 30.04 in 5.0 mi North 10.4 mph 21.9 mph N/A   Overcast
12:52 PM 37.9 °F 30.5 °F 37.0 °F 97% 30.06 in 4.0 mi NNE 11.5 mph - N/A   Overcast
1:52 PM 37.9 °F 30.5 °F 37.0 °F 97% 30.06 in 8.0 mi NNE 11.5 mph - N/A   Overcast
2:52 PM 39.0 °F 31.0 °F 36.0 °F 89% 30.06 in 10.0 mi North 13.8 mph - N/A   Overcast
3:12 PM 39.0 °F 31.4 °F 36.0 °F 89% 30.07 in 10.0 mi North 12.7 mph 17.3 mph N/A   Overcast
3:52 PM 39.9 °F 32.5 °F 36.0 °F 86% 30.08 in 10.0 mi North 12.7 mph - N/A   Overcast
4:52 PM 41.0 °F 33.1 °F 36.0 °F 82% 30.07 in 10.0 mi North 15.0 mph - N/A   Overcast
5:52 PM 41.0 °F 34.3 °F 37.0 °F 86% 30.07 in 10.0 mi NNE 11.5 mph - N/A   Overcast
6:52 PM 39.9 °F 34.5 °F 37.0 °F 89% 30.08 in 10.0 mi NNE 8.1 mph - N/A   Overcast
7:52 PM 39.0 °F 31.0 °F 37.0 °F 93% 30.09 in 10.0 mi NNE 13.8 mph - N/A   Overcast
8:52 PM 39.0 °F 32.8 °F 37.0 °F 93% 30.14 in 10.0 mi North 9.2 mph - N/A   Overcast
9:18 PM 39.0 °F 32.8 °F 36.0 °F 89% 30.15 in 10.0 mi NNE 9.2 mph - N/A   Overcast
9:52 PM 39.0 °F 32.3 °F 36.0 °F 89% 30.17 in 10.0 mi NNE 10.4 mph - N/A   Overcast
10:08 PM 39.0 °F 34.0 °F 37.0 °F 93% 30.16 in 10.0 mi NNE 6.9 mph - N/A   Overcast
10:52 PM 37.9 °F 31.5 °F 37.0 °F 97% 30.16 in 10.0 mi NNE 9.2 mph - N/A   Overcast
11:52 PM 37.9 °F 31.5 °F 37.0 °F 97% 30.16 in 10.0 mi NNE 9.2 mph - N/A   Overcast